Location: Bakov nad Jizerou
(50.4784°N, 14.9394°E)
Time: 15:25:22
(UTC+00:00)

Cosmos 1331 Rocket - Pass Details

Date: 16 June 2021
Orbit: 749 x 778 km, 74.0° (Epoch: 02 August)

Event Time Altitude Azimuth Distance (km) Brightness Sun altitude
Exits shadow 21:22:12 - 212° (SSW) 3,116 6.8 -13.0°
Reaches altitude 10° 21:24:19 10° 215° (SW) 2,299 6.2 -13.1°
Maximum altitude 21:29:31 66° 297° (WNW) 845 4.4 -13.4°
Drops below altitude 10° 21:34:47 10° 20° (NNE) 2,332 7.3 -13.7°
Sets 21:37:13 0° 23° (NNE) 3,267 8.0 -13.8°
